Regional Weather Roundup
Issued by NWS

Home | Current Version | Previous Version | Text Only | Print | Product List | Glossary Off
Versions: 1 2 3 4 5 6 7 8 9 10 11 12 13 14 15 16 17 18 19 20 21 22 23 24 25 26 27 28 29 30 31 32 33 34 35 36 37 38 39 40 41 42 43 44 45 46 47 48 49 50

125
ASUS45 KABQ 170901
RWRNM
NEW MEXICO REGIONAL WEATHER ROUNDUP
NATIONAL WEATHER SERVICE ALBUQUERQUE NM
200 AM MST TUE JAN 17 2017

NOTE: "FAIR" MEANS FEW OR NO CLOUDS BELOW 12,000 FEET AGL WITH NO
       SIGNIFICANT WEATHER OR OBSTRUCTIONS TO VISION.

      THIS PRODUCT IS RELEASED AS TWO VERSIONS.  ONE VERSION NEAR
      THE TOP OF THE HOUR CONTAINING PRELIMINARY DATA FROM ALBUQUERQUE
      AND OTHER STATIONS.  A FINAL VERSION WITH ADDITIONAL DATA IS
      ISSUED ABOUT 10 MINUTES AFTER THE HOUR.

NMZ501-503-504-510>518-171000-
NORTHWEST PLATEAU/NORTHCENTRAL MOUNTAINS

CITY           SKY/WX    TMP DP  RH WIND       PRES   REMARKS
FARMINGTON     MOCLDY    32  32 100 CALM      30.10S
LOS ALAMOS     CLOUDY    32  32 100 S6        30.12S FOG     WCI  26
SANTA FE       CLOUDY    33  32  96 S8        30.12R WCI  26
TAOS           CLOUDY    30  25  80 CALM      30.12R
ANGEL FIRE     FLURRIES  24  23  95 CALM      30.11S

$$
NMZ402-403-502-505>509-171000-
WESTCENTRAL MOUNTAINS/SOUTHWEST MOUNTAINS

CITY           SKY/WX    TMP DP  RH WIND       PRES   REMARKS
GALLUP         LGT SNOW  31  31 100 CALM      30.10S FOG
GRANTS         CLOUDY    33  33  99 CALM      30.12S
SILVER CITY    FAIR      31  30  94 N7        30.06F WCI  25

$$
NMZ407-409-411-412-171000-
SOUTHERN DESERTS

CITY           SKY/WX    TMP DP  RH WIND       PRES   REMARKS
DEMING         FAIR      36  34  92 E6        30.07R WCI  31
LAS CRUCES     MOCLDY    36  35  94 N6        30.07F WCI  31
HOLLOMAN AFB   FAIR      36  36  99 NE3       30.11S
ALAMOGORDO     FAIR      37  34  87 CALM      30.08F
T OR C         FAIR      37  35  92 NW6       30.07S WCI  32

$$
NMZ519>523-171000-
CENTRAL VALLEYS/CENTRAL HIGHLANDS

CITY           SKY/WX    TMP DP  RH WIND       PRES   REMARKS
ALBUQUERQUE    CLOUDY    40  34  79 E9        30.11R WCI  34
DOUBLE EAGLE   HVY RAIN  36  35  94 SE3       30.12R
MORIARTY ARPT  CLOUDY    34  31  89 CALM      30.15S
CLINES CORNERS FOG       30  28  92 E9        30.14R VSB 3/4 WCI  22
BELEN          DRIZZLE   40  40 100 CALM      30.11R
SOCORRO        CLOUDY    37  35  92 W5        30.09S WCI  34

$$
NMZ524>526-539-540-171000-
SOUTHCENTRAL MOUNTAINS

CITY           SKY/WX    TMP DP  RH WIND       PRES   REMARKS
RUIDOSO        NOT AVBL

$$
NMZ527>531-171000-
NORTHEAST HIGHLANDS/NORTHEAST PLAINS

CITY           SKY/WX    TMP DP  RH WIND       PRES   REMARKS
LAS VEGAS      CLOUDY    26  25  96 SE3       30.12S
RATON          FAIR      24  22  91 CALM      30.11S
CLAYTON        CLOUDY    32  32 100 NW9       30.12R WCI  24

$$
NMZ532>537-171000-
EASTCENTRAL PLAINS

CITY           SKY/WX    TMP DP  RH WIND       PRES   REMARKS
TUCUMCARI      CLOUDY    38  32  79 E5        30.15S WCI  34
CANNON AFB     MOCLDY    33  33 100 N5        30.16R WCI  29
CLOVIS AIRPORT FAIR      30  27  86 NE5       30.15R WCI  25

$$
NMZ028-029-538-171000-
SOUTHEAST PLAINS

CITY           SKY/WX    TMP DP  RH WIND       PRES   REMARKS
ROSWELL        CLOUDY    42  35  76 N6        30.15R
ARTESIA        MOCLDY    39  39 100 N12       30.15R WCI  32
CARLSBAD       FAIR      38  37  97 N9        30.13R WCI  31


$$




USA.gov is the U.S. government's official web portal to all federal, state and local government web resources and services.